Temp
8 9 9 10 9 10 10 11 12 12 12 12 12 11 11 12 12 11 10 9 9 7 7 7 7 7 7 7 7 7 7 7 7 7 7 7 7 7 7 6 7 7 7 7 6 7 7 8 7
8 8 9 9 9 9 10 11 12 13 12 12 11 11 11 12 11 11 11 9 7 7 8 7 7 7 7 7 7 7 7 7 7 7 7 7 7 7 7 7 6 6 7 7 6 7 7 8 7
8 8 8 9 9 9 10 12 12 13 12 12 11 11 11 11 10 10 10 10 7 8 7 7 7 7 7 7 7 7 7 7 7 7 7 7 7 7 7 7 7 6 6 7 7 7 7 8 8
8 8 8 9 10 10 11 10 11 10 10 10 11 10 10 10 10 10 10 10 7 6 7 7 7 7 7 7 7 7 7 7 7 7 7 7 7 7 7 7 7 7 7 7 7 7 7 8 7
7 8 8 9 10 10 10 10 10 10 10 10 10 11 11 11 9 9 9 9 8 7 7 7 7 7 7 7 7 7 7 7 7 7 7 7 7 7 7 7 7 7 7 7 7 7 7 7 7
7 7 7 9 11 10 10 10 10 10 9 11 11 12 11 11 10 10 9 8 8 7 7 7 7 7 7 7 7 6 7 7 7 7 7 7 7 7 7 7 7 7 7 7 7 7 7 7 7
6 7 8 10 11 9 11 10 10 11 10 11 11 12 12 11 10 9 9 9 9 8 7 7 7 7 7 7 7 7 7 7 7 7 7 7 7 7 7 7 7 7 7 7 7 7 7 7 7
7 7 7 9 10 10 11 10 11 11 10 10 10 11 12 12 11 10 9 9 9 8 7 7 7 7 7 7 7 7 7 7 7 7 7 7 7 7 7 7 7 7 7 7 8 7 7 7 7
7 6 7 9 10 10 10 10 11 10 10 10 10 11 10 11 11 10 9 9 9 8 7 7 7 7 7 7 7 7 7 7 6 6 7 7 7 7 7 7 7 7 7 7 7 7 7 7 7
6 6 7 10 10 10 10 9 8 9 9 10 9 10 11 10 10 10 9 9 9 8 7 7 7 7 7 7 7 7 7 7 6 7 7 7 7 7 7 7 7 7 7 7 7 7 8 7 7
6 6 9 10 9 9 9 9 8 8 8 8 9 9 8 9 9 9 9 7 8 7 7 7 7 7 7 7 7 7 7 7 7 7 6 6 6 6 6 6 6 7 7 7 7 8 8 8 8
5 7 8 10 9 9 8 8 8 8 8 8 7 6 6 6 6 7 8 7 6 7 7 8 8 7 7 6 6 6 7 7 7 7 6 6 6 6 6 6 6 7 8 7 8 8 7 8 7
5 6 7 8 8 8 7 7 8 8 7 7 7 7 5 6 6 6 5 7 6 7 7 7 6 6 6 6 6 6 6 6 6 6 6 6 6 6 6 6 7 7 7 7 8 7 7 7 7
5 6 6 7 7 7 7 7 8 7 7 7 7 7 6 7 7 6 6 6 6 6 6 6 6 6 6 6 6 6 6 6 6 6 6 6 6 6 6 6 7 7 7 7 7 7 6 6 6
5 5 5 5 6 6 6 7 8 8 8 7 8 8 5 7 7 8 7 5 6 5 5 6 6 6 6 6 6 6 6 6 6 5 5 5 5 6 6 6 7 7 7 7 7 7 6 6 6
4 4 5 6 6 6 6 7 7 7 7 7 8 8 7 6 6 7 7 6 5 5 6 5 5 5 6 6 6 6 5 5 6 6 6 6 6 6 6 6 6 7 6 7 7 7 6 6 6
4 4 4 6 6 6 6 6 7 7 8 8 8 9 7 6 6 6 7 6 6 5 5 5 5 6 6 5 5 5 4 5 5 5 5 5 6 6 6 6 6 6 6 6 6 6 5 5 5
3 4 5 5 6 6 6 7 8 7 8 8 8 8 7 7 7 7 7 6 6 6 6 5 6 5 5 4 4 4 4 4 4 4 5 5 6 6 6 6 6 6 6 6 6 5 5 5 4
4 4 5 6 6 7 7 7 7 7 8 7 7 7 8 8 7 7 6 6 6 6 5 5 5 5 4 4 3 3 3 3 3 4 4 5 5 5 5 5 5 6 5 5 5 5 5 5 4
3 4 5 6 6 7 7 7 8 7 8 9 8 8 7 8 7 7 6 6 6 5 5 5 5 4 3 3 3 3 4 4 3 3 4 4 4 3 4 4 4 4 4 4 4 4 4 4 4
3 3 4 6 6 7 7 6 5 6 5 6 6 7 7 8 8 7 7 6 6 5 5 5 5 4 4 3 3 4 4 3 2 2 3 4 4 3 3 3 2 2 3 3 4 4 4 3 3
3 4 4 5 6 6 6 3 4 5 5 6 6 7 7 7 7 7 7 7 6 6 5 5 5 5 4 4 4 3 4 3 2 2 3 3 2 2 2 2 2 3 3 3 4 3 3 3 3
3 3 4 5 5 6 6 6 5 5 5 6 6 7 7 7 8 7 7 7 6 5 5 5 5 5 4 4 4 4 4 3 3 2 2 2 2 2 2 2 3 3 3 3 3 3 3 2 2
2 4 4 4 5 4 7 6 4 5 6 6 7 7 7 7 7 7 6 6 6 5 5 5 5 5 4 4 4 4 4 3 3 3 3 3 3 3 3 3 3 3 3 2 2 2 2 2 2
2 3 2 3 2 2 7 6 7 7 8 8 8 8 8 7 7 7 7 6 6 6 5 5 6 5 5 5 4 4 4 4 3 3 3 3 3 3 3 3 3 2 2 2 2 2 2 2 2
2 3 3 3 2 4 6 5 7 7 8 8 9 9 9 8 8 7 7 7 6 6 5 6 6 5 5 5 4 4 4 4 4 4 4 4 4 3 3 3 2 2 2 2 2 1 2 2 2
3 3 4 5 4 4 6 6 7 8 8 8 8 8 8 8 8 8 8 7 6 6 6 6 6 5 5 5 5 4 4 4 3 3 3 3 3 3 3 2 2 1 1 1 1 1 1 2 2
3 4 3 4 1 3 2 6 7 8 8 9 8 8 8 8 7 8 7 7 6 6 6 6 5 5 5 4 4 5 4 4 3 3 3 3 3 3 2 2 1 1 1 1 1 1 1 1 2
3 3 4 4 5 1 0 5 7 8 8 8 8 9 8 8 7 7 7 6 6 5 5 5 5 4 4 4 4 4 4 4 3 3 3 3 3 3 2 2 1 1 1 1 1 1 1 1 1
4 4 4 4 2 4 6 5 8 8 8 8 8 8 9 8 8 8 7 6 5 5 5 5 5 4 4 4 4 4 4 3 3 3 3 3 3 2 2 1 1 1 1 1 0 0 1 1 1
Height
3143 3143 3144 3144 3146 3139 3135 3136 3137 3137 3138 3138 3138 3139 3142 3144 3143 3147 3144 3147 3146 3149 3151 3154 3157 3159 3161 3163 3164 3164 3164 3164 3165 3165 3165 3165 3165 3165 3166 3166 3166 3167 3167 3166 3166 3165 3165 3164 3165
3140 3140 3141 3140 3139 3134 3135 3134 3133 3134 3135 3137 3138 3140 3143 3143 3144 3145 3146 3146 3147 3150 3152 3155 3157 3159 3161 3163 3164 3165 3165 3165 3166 3166 3166 3166 3166 3166 3166 3167 3167 3167 3168 3168 3167 3166 3165 3165 3166
3136 3137 3139 3137 3132 3130 3136 3133 3130 3131 3132 3134 3137 3140 3142 3143 3143 3145 3145 3146 3147 3151 3153 3156 3158 3159 3161 3163 3163 3164 3165 3165 3166 3166 3167 3167 3167 3167 3168 3168 3168 3167 3167 3168 3168 3168 3168 3167 3168
3133 3134 3136 3131 3125 3130 3135 3134 3130 3130 3131 3133 3135 3139 3142 3142 3144 3145 3145 3146 3148 3151 3154 3156 3158 3160 3162 3163 3164 3165 3165 3165 3166 3166 3167 3168 3168 3168 3169 3169 3169 3169 3169 3169 3169 3169 3170 3170 3170
3129 3129 3129 3125 3122 3128 3134 3134 3134 3134 3136 3136 3137 3138 3140 3141 3142 3143 3144 3145 3148 3151 3153 3156 3158 3160 3162 3163 3164 3165 3165 3165 3166 3166 3167 3168 3168 3169 3170 3170 3170 3171 3171 3171 3171 3171 3172 3172 3171
3123 3125 3124 3119 3117 3125 3131 3132 3133 3134 3134 3132 3134 3136 3138 3140 3141 3142 3143 3145 3148 3151 3154 3155 3158 3160 3162 3163 3164 3164 3164 3166 3167 3168 3168 3169 3169 3170 3170 3171 3172 3172 3172 3172 3171 3172 3173 3172 3171
3116 3118 3118 3117 3112 3121 3127 3130 3131 3130 3132 3132 3133 3134 3137 3138 3139 3141 3143 3145 3147 3150 3153 3156 3158 3159 3161 3162 3163 3164 3165 3167 3168 3168 3169 3169 3170 3171 3172 3172 3172 3172 3173 3172 3172 3173 3173 3172 3171
3112 3112 3112 3111 3111 3114 3123 3126 3127 3126 3127 3129 3130 3132 3135 3136 3137 3139 3142 3144 3146 3148 3152 3156 3158 3160 3160 3161 3162 3165 3166 3167 3168 3170 3169 3170 3171 3172 3172 3173 3173 3173 3174 3173 3173 3173 3173 3172 3171
3105 3104 3102 3105 3109 3114 3120 3122 3121 3121 3124 3126 3128 3130 3132 3132 3135 3137 3140 3142 3145 3147 3150 3154 3156 3158 3159 3160 3163 3165 3166 3168 3169 3169 3170 3170 3171 3171 3172 3173 3173 3174 3173 3174 3173 3173 3172 3171 3170
3094 3093 3095 3103 3108 3110 3117 3120 3118 3119 3121 3125 3128 3129 3130 3131 3132 3135 3137 3140 3143 3146 3149 3151 3154 3156 3159 3161 3164 3165 3166 3167 3168 3169 3170 3170 3171 3172 3172 3173 3174 3174 3174 3174 3173 3172 3171 3170 3168
3085 3085 3095 3100 3105 3108 3112 3116 3116 3117 3120 3120 3125 3126 3125 3126 3130 3132 3137 3142 3144 3146 3148 3149 3152 3154 3158 3161 3164 3165 3166 3167 3168 3169 3169 3170 3172 3173 3174 3174 3174 3174 3174 3173 3172 3172 3170 3169 3167
3080 3084 3091 3095 3101 3103 3106 3113 3115 3116 3119 3121 3124 3115 3124 3128 3132 3132 3134 3140 3143 3146 3148 3149 3153 3156 3160 3162 3163 3165 3166 3167 3168 3168 3170 3170 3170 3172 3173 3173 3173 3174 3173 3171 3172 3170 3168 3167 3165
3073 3079 3086 3092 3097 3099 3103 3108 3110 3113 3113 3118 3122 3123 3119 3127 3134 3133 3135 3139 3144 3145 3148 3150 3153 3156 3159 3161 3164 3165 3166 3167 3168 3168 3169 3169 3170 3170 3170 3171 3172 3172 3171 3171 3170 3168 3167 3166 3164
3070 3077 3080 3087 3092 3095 3098 3103 3107 3110 3112 3115 3119 3119 3124 3126 3128 3129 3132 3139 3142 3145 3147 3149 3152 3154 3157 3160 3161 3163 3165 3166 3166 3167 3168 3168 3169 3169 3169 3169 3170 3170 3170 3169 3168 3166 3165 3164 3163
3068 3072 3074 3078 3086 3089 3094 3098 3102 3106 3109 3112 3115 3116 3122 3126 3127 3129 3133 3138 3141 3144 3147 3148 3151 3154 3155 3157 3159 3161 3162 3163 3165 3166 3166 3167 3168 3168 3167 3167 3167 3168 3168 3167 3165 3164 3163 3162 3161
3062 3066 3065 3068 3078 3084 3090 3093 3097 3101 3104 3108 3113 3115 3116 3120 3124 3129 3133 3137 3140 3142 3145 3147 3149 3151 3153 3156 3158 3159 3160 3161 3163 3163 3164 3165 3166 3167 3166 3166 3164 3165 3165 3165 3164 3163 3161 3160 3160
3053 3052 3055 3064 3071 3080 3084 3087 3092 3096 3101 3106 3109 3110 3113 3117 3122 3126 3131 3134 3137 3140 3142 3144 3147 3149 3151 3153 3155 3157 3158 3160 3162 3163 3163 3164 3164 3164 3164 3164 3164 3163 3163 3163 3163 3162 3161 3160 3160
3043 3048 3053 3057 3066 3072 3078 3084 3087 3091 3097 3101 3104 3108 3112 3116 3121 3125 3128 3131 3135 3137 3140 3142 3144 3147 3150 3152 3154 3156 3158 3160 3161 3162 3162 3162 3163 3161 3163 3161 3162 3161 3161 3161 3163 3162 3161 3161 3161
3044 3048 3051 3055 3064 3069 3074 3079 3081 3087 3091 3095 3102 3106 3110 3112 3119 3121 3126 3129 3132 3135 3138 3141 3143 3147 3148 3150 3152 3154 3157 3160 3161 3162 3162 3161 3162 3162 3159 3162 3162 3161 3160 3160 3161 3163 3162 3161 3161
3041 3045 3049 3055 3061 3065 3069 3073 3078 3081 3086 3092 3097 3101 3105 3108 3112 3118 3123 3127 3131 3134 3137 3139 3142 3144 3146 3148 3150 3153 3155 3157 3159 3160 3161 3160 3160 3159 3160 3160 3160 3159 3161 3162 3160 3161 3161 3161 3160
3035 3039 3045 3052 3055 3061 3065 3071 3072 3078 3082 3087 3093 3099 3102 3106 3110 3115 3120 3124 3127 3130 3134 3138 3140 3142 3145 3146 3149 3151 3153 3154 3156 3157 3158 3157 3157 3158 3158 3157 3157 3159 3161 3163 3160 3159 3158 3159 3158
3029 3035 3045 3049 3053 3055 3060 3068 3069 3072 3077 3082 3088 3093 3098 3102 3108 3113 3116 3121 3124 3128 3131 3135 3138 3141 3144 3145 3147 3148 3150 3150 3151 3153 3155 3155 3155 3154 3155 3154 3156 3158 3158 3158 3159 3158 3157 3157 3157
3027 3035 3042 3047 3050 3054 3055 3058 3059 3068 3071 3075 3082 3088 3093 3099 3103 3108 3112 3117 3121 3125 3128 3132 3135 3140 3142 3144 3146 3146 3148 3148 3149 3150 3151 3152 3153 3153 3153 3153 3155 3156 3156 3156 3156 3156 3155 3155 3157
3029 3035 3041 3045 3048 3050 3046 3048 3052 3053 3061 3072 3078 3083 3088 3093 3097 3103 3109 3113 3117 3122 3125 3128 3133 3136 3139 3141 3143 3144 3147 3147 3148 3148 3149 3150 3151 3150 3152 3153 3153 3153 3154 3155 3155 3154 3155 3155 3156
3025 3031 3035 3043 3046 3039 3040 3046 3044 3051 3059 3066 3072 3078 3083 3087 3093 3097 3102 3107 3113 3117 3121 3125 3130 3133 3135 3138 3140 3143 3145 3145 3146 3147 3148 3149 3150 3151 3150 3150 3151 3152 3153 3153 3154 3154 3155 3155 3156
3015 3022 3022 3028 3033 3026 3035 3035 3039 3048 3056 3063 3070 3075 3080 3084 3088 3093 3098 3103 3108 3112 3117 3123 3127 3130 3132 3135 3137 3140 3142 3143 3144 3146 3147 3148 3149 3149 3148 3149 3149 3150 3152 3152 3153 3153 3154 3155 3155
3011 3017 3022 3023 3024 3028 3031 3033 3039 3045 3052 3057 3063 3068 3074 3080 3084 3090 3094 3098 3103 3107 3114 3120 3124 3127 3130 3132 3134 3137 3140 3140 3142 3143 3145 3147 3147 3147 3146 3147 3148 3150 3151 3151 3151 3153 3154 3155 3155
3008 3013 3018 3019 3024 3028 3027 3027 3031 3038 3044 3050 3055 3062 3070 3076 3081 3085 3090 3094 3098 3103 3109 3114 3119 3123 3126 3128 3131 3133 3135 3136 3139 3141 3142 3143 3144 3144 3144 3145 3147 3148 3149 3150 3151 3152 3153 3154 3154
3001 3005 3010 3016 3017 3021 3028 3024 3028 3034 3041 3045 3051 3059 3065 3070 3076 3082 3087 3091 3094 3099 3104 3110 3114 3118 3121 3124 3126 3130 3131 3133 3135 3138 3139 3140 3141 3141 3142 3143 3145 3146 3148 3149 3151 3151 3152 3153 3153
2997 3000 3003 3008 3012 3015 3019 3023 3026 3031 3037 3043 3049 3056 3062 3067 3072 3077 3083 3086 3088 3094 3099 3104 3109 3113 3116 3119 3122 3126 3127 3129 3131 3134 3135 3136 3137 3138 3139 3141 3143 3144 3146 3148 3149 3150 3151 3151 3152
Wind_Speed
17 16 14 15 12 12 17 16 12 13 3 11 21 32 28 12 8 2 11 11 11 13 11 14 14 14 14 12 11 10 9 9 9 10 10 11 11 11 10 11 12 13 13 13 12 10 8 5 6
18 18 15 17 17 20 17 14 15 13 13 19 28 28 24 12 7 5 5 13 13 9 12 14 15 15 14 13 12 10 9 9 10 10 11 11 12 11 12 12 13 13 12 11 10 8 6 4 3
19 19 17 16 23 27 9 7 6 14 13 21 31 25 20 14 10 8 6 8 14 12 12 14 15 15 14 14 13 11 10 9 10 10 11 11 12 11 11 12 13 13 13 12 9 6 3 1 2
23 22 21 23 29 15 14 6 11 16 18 27 27 22 20 14 12 8 9 9 14 13 12 14 14 14 14 14 13 11 9 9 10 11 11 11 12 12 12 12 12 11 11 10 8 6 3 1 4
26 25 25 28 32 24 14 15 12 14 17 25 20 18 16 14 13 9 9 10 11 12 15 15 15 15 15 14 12 10 9 10 10 11 11 12 12 12 11 11 11 10 9 8 6 5 3 1 4
27 27 21 33 33 25 24 19 14 15 14 18 17 17 15 17 13 11 10 9 11 10 16 17 17 16 15 14 12 12 11 9 9 9 9 10 10 10 11 11 10 9 8 7 6 4 2 1 2
31 31 31 33 37 31 21 18 19 22 27 26 23 21 15 16 13 13 11 10 11 14 17 17 17 16 14 13 13 12 10 8 8 8 9 9 9 9 9 8 8 8 6 5 4 2 1 2 2
37 36 36 40 38 34 20 16 21 25 31 31 23 22 17 7 13 17 16 16 15 18 19 17 16 15 15 15 14 11 9 8 7 6 7 8 8 7 7 7 6 5 4 3 1 0 2 4 5
41 41 44 43 39 32 13 12 17 17 35 30 24 22 12 10 15 21 21 20 20 20 21 20 18 17 16 15 12 10 10 9 8 8 7 7 7 8 7 6 4 4 3 0 1 3 4 7 9
45 46 48 42 36 33 28 11 4 16 25 23 32 26 21 16 17 22 20 21 22 22 22 22 21 19 16 13 11 10 10 11 10 9 8 7 7 7 5 3 2 1 1 1 5 7 9 10 11
50 52 45 38 35 36 33 19 8 16 23 28 31 26 23 22 23 22 22 23 23 24 24 23 22 20 15 12 11 11 10 10 9 8 8 6 5 4 2 1 2 1 3 5 8 10 11 11 12
49 50 46 40 38 36 30 21 14 12 22 27 23 24 23 25 24 26 25 26 25 23 23 21 18 13 10 9 10 10 10 10 9 9 7 7 6 5 5 4 4 5 6 9 10 10 11 11 11
49 49 47 45 41 39 31 24 18 13 15 18 24 18 14 6 23 23 22 24 23 22 18 16 14 11 9 8 8 9 10 9 9 8 8 7 6 6 6 6 6 6 8 10 12 12 11 10 11
47 44 48 46 43 40 33 26 21 15 19 24 23 18 7 9 20 23 24 24 23 20 17 15 14 12 11 9 8 9 9 9 8 7 6 6 6 6 7 6 8 9 9 9 10 10 10 8 10
34 39 45 50 44 39 32 28 23 19 19 24 22 13 18 20 23 20 23 25 21 17 17 16 15 13 12 12 12 12 12 11 9 7 5 6 7 7 7 8 8 9 10 10 9 8 7 6 7
37 38 34 48 44 37 33 28 23 20 20 21 19 17 24 28 29 24 21 22 20 18 18 17 16 15 15 13 12 13 13 11 9 8 7 6 7 8 9 9 7 7 9 9 9 8 6 5 6
30 29 45 39 40 36 34 29 25 23 21 20 18 18 25 29 24 20 21 21 19 18 17 15 15 15 14 13 13 12 11 9 8 7 6 6 7 8 9 8 8 7 5 6 6 6 5 6 5
25 32 25 40 35 37 30 24 28 25 26 21 21 20 24 24 22 22 25 24 22 19 17 13 12 13 13 13 13 12 10 6 5 5 6 6 7 6 6 3 5 4 2 2 5 5 5 6 5
25 26 37 31 29 33 30 26 28 31 32 27 24 20 21 24 25 22 25 25 23 20 17 13 10 10 12 13 13 13 10 9 9 7 6 6 6 7 8 6 6 4 4 2 2 5 9 9 6
36 25 27 32 28 21 25 28 29 39 31 23 22 19 23 31 28 24 25 27 25 21 19 16 10 8 9 14 16 14 11 13 12 11 12 13 9 6 4 5 9 11 11 10 7 7 9 10 7
41 35 27 19 26 23 26 32 43 40 37 32 25 22 24 32 31 27 25 25 23 21 20 17 12 9 7 10 16 16 15 16 12 15 18 16 12 15 15 12 11 13 12 12 8 6 4 8 7
43 43 28 19 12 19 28 12 32 44 36 32 32 26 27 31 28 25 21 21 22 23 23 21 16 15 11 10 11 12 11 14 13 18 21 19 22 18 17 18 11 13 12 13 12 12 11 9 6
34 33 33 25 19 14 30 11 42 44 42 41 34 32 28 28 26 26 27 25 25 26 26 24 20 19 15 13 10 7 5 4 3 7 10 7 5 6 10 9 9 11 14 13 9 8 8 5 5
29 14 25 19 17 10 21 20 24 52 44 38 31 33 29 31 29 30 29 29 26 28 27 27 24 19 17 13 11 10 8 5 3 3 3 4 5 5 7 8 8 8 8 8 8 7 6 4 3
25 28 5 6 4 9 28 16 12 40 36 31 32 31 31 31 31 31 33 33 29 30 29 29 25 20 18 16 14 12 10 8 6 4 4 4 5 7 8 8 7 7 6 7 7 6 4 3 2
31 32 13 7 8 11 11 12 16 20 21 28 33 26 25 32 30 30 32 32 32 31 31 31 25 22 18 16 14 14 12 12 10 9 7 8 9 10 9 9 7 7 7 6 6 5 4 4 3
23 32 31 6 6 5 11 15 7 20 28 30 36 37 34 30 31 28 25 28 32 33 33 32 26 23 21 17 16 16 16 15 15 13 12 12 11 10 9 9 8 7 6 6 5 5 6 5 2
22 27 23 16 5 5 4 19 17 24 32 34 39 37 31 30 32 30 26 24 29 34 35 34 27 23 22 18 18 17 18 17 17 15 15 14 12 11 10 9 8 7 6 6 7 8 7 4 3
29 24 27 23 9 5 3 12 23 25 30 32 32 29 28 33 32 26 26 21 23 30 35 32 28 25 24 21 21 20 19 18 19 18 16 15 13 12 11 10 10 8 7 8 8 8 6 4 3
27 23 28 23 8 7 11 3 21 18 27 32 31 29 27 27 26 28 24 22 22 30 28 26 25 24 23 23 23 23 20 19 20 18 17 15 15 13 12 12 11 10 9 9 9 8 6 5 4
Wind_Direction
267 264 263 264 261 245 252 255 258 265 218 183 169 180 183 190 162 197 164 173 146 156 170 172 173 178 181 182 187 192 188 166 160 150 148 152 154 153 150 145 142 138 131 123 116 116 113 103 89
268 257 255 253 250 252 267 281 251 215 240 200 176 181 189 194 183 151 164 160 136 150 166 171 173 177 180 181 188 190 190 170 161 156 150 151 151 155 152 149 145 139 132 128 126 124 124 111 84
258 252 249 244 251 247 267 257 212 226 221 193 180 186 191 202 203 184 160 149 147 154 166 174 176 177 179 183 186 185 180 168 161 159 152 148 147 151 153 151 150 146 143 141 139 132 122 82 37
257 245 241 238 241 246 229 200 180 167 179 181 189 182 199 209 213 191 169 151 157 163 173 177 179 178 180 185 186 182 176 166 161 159 154 151 150 153 155 154 154 153 149 147 148 150 168 302 348
242 236 233 241 245 242 180 179 171 171 180 183 201 189 195 206 191 193 174 155 164 175 177 181 180 180 182 184 183 179 178 174 167 162 161 158 157 157 158 159 160 158 155 156 165 170 171 7 340
235 226 223 241 244 250 215 201 227 228 235 223 219 226 223 206 189 191 174 179 175 189 189 184 184 182 182 182 182 181 179 180 172 167 162 162 160 163 165 164 163 163 163 170 180 176 136 126 311
233 229 229 246 251 243 240 235 222 249 222 237 243 252 247 202 184 191 183 194 194 180 193 192 189 182 183 187 189 187 179 181 178 173 170 166 163 166 165 165 168 173 168 172 187 137 166 229 263
235 234 231 238 243 251 247 238 238 234 219 231 243 242 242 273 207 193 189 187 191 185 190 195 192 188 186 194 197 190 184 181 172 179 177 172 172 166 166 172 176 169 169 194 185 238 286 288 287
227 223 228 231 236 236 230 219 240 229 221 231 243 242 253 239 204 197 193 189 187 188 190 193 195 198 200 198 196 193 186 178 173 183 187 196 185 182 177 182 176 175 151 80 322 300 297 297 298
220 224 229 231 234 239 228 237 273 233 215 234 246 235 243 228 211 198 198 192 192 192 192 194 199 202 205 205 202 198 193 188 185 190 194 204 192 203 188 176 178 159 90 314 297 298 302 298 297
220 225 230 230 232 238 240 241 272 237 226 218 229 231 216 204 196 198 200 193 196 195 198 200 201 204 204 205 208 211 207 202 195 194 196 197 218 225 227 204 211 224 287 298 298 306 309 318 312
224 228 227 226 229 236 244 248 243 259 236 231 228 204 197 180 193 196 196 194 194 196 201 205 210 210 209 211 213 217 218 214 208 200 202 204 213 238 246 240 238 269 296 297 297 308 318 324 318
225 227 228 228 229 237 245 242 246 265 229 211 209 256 275 247 207 194 198 198 197 203 203 202 201 198 199 212 229 239 234 225 222 220 214 225 227 222 224 243 263 275 288 295 306 314 321 323 321
228 228 230 229 229 236 244 245 245 240 217 220 238 230 265 199 206 203 203 203 202 202 202 203 205 202 205 212 224 227 233 232 230 237 252 264 263 250 248 243 261 280 287 294 301 310 319 324 321
232 232 232 230 227 234 239 242 245 241 224 220 224 289 224 215 198 215 210 208 210 205 206 214 215 225 228 223 220 212 216 224 231 243 260 270 269 264 260 265 277 287 294 293 290 293 302 309 304
226 225 227 228 222 226 233 237 236 240 219 206 235 207 194 200 194 208 214 207 210 207 211 213 219 221 230 236 230 226 223 222 228 231 234 241 255 265 268 274 268 280 289 293 291 285 287 288 290
209 220 224 228 220 219 229 233 234 227 211 199 186 197 193 191 188 188 194 195 197 198 203 212 223 236 243 242 235 229 228 232 238 238 236 244 243 252 261 262 274 274 275 292 281 278 285 278 290
210 211 219 228 215 213 223 229 230 216 196 197 175 182 186 184 186 186 189 184 190 192 199 208 222 241 247 240 231 229 233 220 224 232 240 245 252 234 251 270 275 290 274 327 305 296 292 296 313
214 214 220 219 214 214 222 229 215 202 194 179 170 179 193 191 186 190 195 187 191 194 202 201 226 242 239 230 228 202 219 254 276 277 240 210 159 136 81 38 25 23 353 321 293 326 324 307 300
211 214 221 225 216 223 227 219 212 199 200 199 204 211 202 191 194 202 201 196 195 198 200 208 226 231 233 226 220 213 268 276 266 244 209 190 200 331 359 81 11 9 345 318 312 278 300 303 294
217 217 209 213 222 224 215 196 188 192 189 190 201 220 205 189 194 203 203 202 199 203 206 214 223 215 226 224 223 230 266 273 261 232 233 226 250 276 285 292 305 311 274 290 260 256 285 284 303
219 219 212 209 207 193 189 172 197 189 193 201 204 206 200 195 204 206 209 211 207 208 211 215 223 224 216 211 214 234 261 265 240 228 233 246 265 266 261 278 263 287 279 266 271 285 284 282 275
221 222 218 218 238 208 201 202 203 192 199 206 205 198 201 204 206 207 213 213 211 209 212 215 222 225 221 224 229 219 225 190 191 218 224 232 264 268 267 274 274 275 290 270 266 273 273 268 258
219 196 220 223 233 234 206 200 190 195 202 204 205 206 208 207 206 212 218 217 213 212 212 213 219 222 219 220 215 210 215 203 193 181 205 247 264 276 279 281 279 273 271 272 273 271 257 240 234
203 203 173 196 191 230 223 208 208 208 209 216 213 208 211 211 215 219 219 220 217 214 212 212 215 217 216 215 213 218 225 227 226 226 233 259 269 275 285 289 273 255 260 262 252 240 223 211 221
202 196 187 164 188 216 201 209 221 213 214 221 222 222 220 217 218 223 222 222 219 217 213 212 214 215 214 215 216 223 232 232 233 242 256 270 274 280 290 286 269 252 248 241 231 213 205 199 226
203 213 201 204 210 136 196 226 191 219 217 216 217 222 223 222 219 212 221 223 220 218 215 213 215 215 217 219 219 226 236 237 236 238 247 258 264 268 268 266 254 239 233 226 212 206 199 204 241
221 208 199 221 150 184 228 202 202 205 205 208 210 219 219 222 221 219 216 213 214 215 211 211 216 219 222 224 222 227 235 240 241 242 251 253 259 263 263 253 240 238 239 226 211 205 199 206 248
214 217 201 208 229 156 124 216 206 212 204 200 202 208 213 215 214 217 209 207 208 210 206 211 218 224 226 227 225 231 237 242 243 244 246 246 254 255 255 244 232 230 229 220 214 207 207 219 264
213 208 195 190 185 191 213 180 201 185 211 213 211 207 208 208 208 203 207 205 201 200 202 207 214 222 224 230 230 236 238 242 240 239 242 247 251 251 250 237 226 225 225 220 216 215 219 238 266